[[{"header":{"parameterUnit":"m.s-1","parameterCategory":1,"la1":30.2991,"la2":30.254,"lo1":-89.0895,"lo2":-89.0444,"dy":0.0017,"dx":0.0017,"nx":28,"ny":28,"refTime":"2024-04-24T21:00:00:Z","depth":0,"parameterNumber":2,"parameterNumberName":"U-component_of_WINDS"},"data":[0,0,0,0,0,0,0,0,0,0,0,0,0,0,0,0,0,0,0,0,0,0,0,0,0,0,0,0,0,0,0,0,0,0,0,0,0,0,0,0,0,0,0,0,0,0,0,0,0,0,0,0,0,0,0,0,0,0,-3.9083,-3.9084,0,-3.916,-3.9161,-3.9161,-3.9194,-3.9194,-3.9194,-3.9194,-3.927,-3.9272,-3.9275,0,0,0,0,0,0,0,0,0,0,0,0,0,-3.8964,-3.8966,-3.9083,-3.9084,-3.9085,-3.916,-3.9161,-3.9162,-3.9194,-3.9194,-3.9194,-3.9194,-3.927,-3.9272,-3.9275,0,0,0,0,0,0,0,0,0,0,0,0,0,-3.9026,-3.8967,-3.9083,-3.911,-3.9114,-3.9159,-3.9161,-3.9162,-3.9194,-3.9194,-3.9194,-3.9194,-3.9269,-3.9272,-3.9275,-3.9299,0,0,-3.9285,-3.9286,0,0,0,0,0,0,0,0,-3.9022,-3.903,-3.9105,-3.9109,-3.9112,-3.9167,-3.9147,-3.9208,-3.9194,-3.9164,-3.9194,-3.9194,-3.9236,-3.9242,-3.9257,-3.9302,-3.9306,-3.9285,-3.9287,-3.9289,-3.929,0,0,0,0,0,0,0,-3.9018,-3.9027,-3.9113,-3.9106,-3.9111,-3.9119,-3.9127,-3.9159,-3.92,-3.9166,-3.9169,-3.9178,-3.9238,-3.9254,-3.9259,-3.9307,-3.9285,-3.9288,-3.929,-3.9291,-3.9377,-3.9377,0,0,0,0,0,0,-3.9009,-3.9023,-3.9111,-3.9116,-3.9066,-3.9121,-3.913,-3.915,-3.92,-3.9207,-3.9178,-3.9179,-3.9248,-3.9255,-3.9262,-3.9293,-3.9289,-3.9292,-3.9293,-3.9376,-3.9377,-3.9377,0,0,0,0,0,0,-3.9007,-3.9017,-3.9108,-3.907,-3.9082,-3.9123,-3.9145,-3.9151,-3.9167,-3.9208,-3.9216,-3.9186,-3.9248,-3.9257,-3.929,-3.9296,-3.9293,-3.9296,-3.9376,-3.9376,-3.9377,-3.9356,0,0,0,0,0,0,-3.9003,-3.9016,-3.9025,-3.907,-3.9084,-3.9135,-3.9145,-3.9153,-3.9173,-3.9175,-3.9218,-3.9225,-3.9249,-3.9285,-3.9293,-3.9301,-3.9298,-3.9375,-3.9376,-3.9377,-3.9356,-3.9355,-3.9355,0,0,0,0,0,-3.8999,-3.9016,-3.9026,-3.9036,-3.9097,-3.9135,-3.9143,-3.9171,-3.9173,-3.9183,-3.921,-3.9224,-3.9294,-3.9288,-3.9297,-3.9306,-3.9375,-3.9376,-3.9377,-3.9356,-3.9356,-3.9355,0,0,0,0,0,0,-3.8969,-3.9022,-3.9034,-3.9065,-3.9096,-3.9141,-3.9154,-3.9169,-3.9198,-3.9199,-3.9232,-3.9241,-3.9271,-3.9292,-3.9284,-3.9332,-3.9336,-3.9339,-3.9317,-3.9317,-3.9316,-3.931,-3.9301,0,0,0,0,0,-3.8967,-3.8994,-3.9038,-3.9062,-3.9077,-3.9112,-3.913,-3.9149,-3.9181,-3.9194,-3.9223,-3.9253,-3.9283,-3.9301,-3.933,-3.936,-3.937,-3.937,-3.937,-3.9369,-3.9371,-3.9389,-3.939,-3.938,-3.938,-3.938,0,0,-3.8961,-3.8993,-3.9008,-3.9057,-3.9082,-3.9109,-3.9123,-3.9151,-3.9171,-3.9198,-3.9231,-3.9253,-3.9289,-3.9321,-3.9336,-3.9339,-3.9376,-3.937,-3.9369,-3.9372,-3.939,-3.9391,-3.9392,-3.938,-3.938,-3.938,0,0,-3.8965,-3.8992,-3.9015,-3.9041,-3.908,-3.9104,-3.9109,-3.9153,-3.9169,-3.9203,-3.9224,-3.9248,-3.9298,-3.9323,-3.9342,-3.9357,-3.9371,-3.9365,-3.9362,-3.938,-3.938,-3.9381,-3.9387,-3.9389,-3.9367,-3.9367,-3.9367,0,-3.8953,-3.8995,-3.9025,-3.9052,-3.9073,-3.91,-3.9123,-3.9147,-3.9193,-3.9207,-3.921,-3.9273,-3.9299,-3.9337,-3.9341,-3.9356,-3.9363,-3.936,-3.9378,-3.9379,-3.938,-3.9386,-3.9388,-3.9366,-3.9366,-3.9366,-3.9367,0,-3.8978,-3.9007,-3.9021,-3.9066,-3.9089,-3.9114,-3.9148,-3.9167,-3.9184,-3.9208,-3.9242,-3.9275,-3.9311,-3.9322,-3.9338,-3.9363,-3.9364,-3.9372,-3.9376,-3.938,-3.9386,-3.9388,-3.9365,-3.9365,-3.9366,-3.9366,0,0,-3.8965,-3.9027,-3.9032,-3.9053,-3.9098,-3.9121,-3.9148,-3.9184,-3.92,-3.9232,-3.9255,-3.9297,-3.9305,-3.9327,-3.9347,-3.9362,-3.9372,-3.9369,-3.937,-3.9368,-3.9402,-3.9395,-3.9397,-3.9382,-3.9383,-3.9383,-3.9399,0,-3.8975,-3.9024,-3.9053,-3.909,-3.9117,-3.9144,-3.9167,-3.9197,-3.922,-3.9247,-3.9272,-3.9302,-3.9311,-3.9324,-3.934,-3.9368,-3.9379,-3.9367,-3.9404,-3.9405,-3.9394,-3.94,-3.9393,-3.9406,-3.9401,-3.9402,-3.9402,0,-3.8993,-3.9025,-3.9065,-3.9108,-3.9121,-3.9141,-3.9178,-3.9202,-3.9238,-3.9254,-3.9279,-3.9299,-3.9328,-3.9331,-3.9372,-3.9363,-3.938,-3.9396,-3.9397,-3.9401,-3.9403,-3.9404,-3.941,-3.9412,-3.9406,-3.9406,-3.9405,0,-3.8979,-3.9032,-3.9063,-3.908,-3.9132,-3.9145,-3.9167,-3.9203,-3.9223,-3.9255,-3.9269,-3.9303,-3.9322,-3.9348,-3.9377,-3.9377,-3.9416,-3.9421,-3.943,-3.9429,-3.9436,-3.9435,-3.9445,-3.9447,-3.9447,-3.9447,-3.9447,0,-3.8988,-3.9011,-3.9058,-3.9077,-3.9104,-3.9137,-3.9163,-3.9187,-3.9219,-3.9243,-3.9268,-3.929,-3.9327,-3.9354,-3.9377,-3.9408,-3.9416,-3.943,-3.9436,-3.9428,-3.9426,-3.9439,-3.9439,-3.9448,-3.9448,-3.9448,-3.9448,0,-3.8977,-3.9009,-3.9045,-3.9091,-3.9103,-3.9121,-3.916,-3.918,-3.9205,-3.9236,-3.9245,-3.9284,-3.9317,-3.9349,-3.9393,-3.9408,-3.9439,-3.9447,-3.9427,-3.943,-3.9438,-3.9436,-3.9456,-3.946,-3.946,-3.946,-3.946,0,-3.898,-3.8999,-3.9047,-3.9065,-3.9087,-3.9116,-3.9137,-3.917,-3.9192,-3.9234,-3.9249,-3.9284,-3.9314,-3.9365,-3.9398,-3.9432,-3.944,-3.9445,-3.9446,-3.9437,-3.9441,-3.9439,-3.9441,-3.9444,-3.9444,-3.9444,-3.9443,0,-3.8982,-3.8997,-3.9027,-3.9063,-3.9088,-3.9117,-3.9148,-3.9161,-3.92,-3.9223,-3.9257,-3.9281,-3.9326,-3.9361,-3.9399,-3.9422,-3.9439,-3.9443,-3.9447,-3.9439,-3.9427,-3.9434,-3.9425,-3.9442,-3.9443,-3.9443,-3.9443,-3.9443,-3.8978,-3.8997,-3.9034,-3.9066,-3.9093,-3.9121,-3.9142,-3.917,-3.9199,-3.9239,-3.9257,-3.9292,-3.9328,-3.9381,-3.9404,-3.9432,-3.9436,-3.9441,-3.9443,-3.9444,-3.9442,-3.9423,-3.9439,-3.9439,-3.9439,-3.9439,-3.9439,0,-3.8982,-3.9007,-3.9037,-3.9079,-3.9105,-3.912,-3.9154,-3.9175,-3.9205,-3.9238,-3.9267,-3.9307,-3.9341,-3.9376,-3.9413,-3.9428,-3.9437,-3.9437,-3.9436,-3.9441,-3.9436,-3.9429,-3.9429,-3.9429,-3.9429,-3.9429,-3.9429,-3.9429,-3.8987,-3.9018,-3.9038,-3.9084,-3.9109,-3.9143,-3.9162,-3.9188,-3.9214,-3.9258,-3.9287,-3.931,-3.9343,-3.9383,-3.9415,-3.9424,-3.9436,-3.9434,-3.9445,-3.944,-3.9441,-3.9441,-3.9435,-3.9436,-3.9436,-3.9448,-3.9448,-3.9448]},{"header":{"parameterUnit":"m.s-1","parameterCategory":1,"la1":30.2991,"la2":30.254,"lo1":-89.0895,"lo2":-89.0444,"dy":0.0017,"dx":0.0017,"nx":28,"ny":28,"refTime":"2024-04-24T21:00:00:Z","depth":0,"parameterNumber":3,"parameterNumberName":"V-component_of_WINDS"},"data":[0,0,0,0,0,0,0,0,0,0,0,0,0,0,0,0,0,0,0,0,0,0,0,0,0,0,0,0,0,0,0,0,0,0,0,0,0,0,0,0,0,0,0,0,0,0,0,0,0,0,0,0,0,0,0,0,0,0,5.1789,5.179,0,5.1836,5.1836,5.1837,5.1875,5.1875,5.1876,5.1876,5.192,5.1921,5.1922,0,0,0,0,0,0,0,0,0,0,0,0,0,5.1731,5.1732,5.1789,5.179,5.179,5.1836,5.1836,5.1837,5.1875,5.1875,5.1876,5.1876,5.192,5.1921,5.1922,0,0,0,0,0,0,0,0,0,0,0,0,0,5.1764,5.1732,5.1789,5.1815,5.1818,5.1836,5.1836,5.1837,5.1875,5.1875,5.1876,5.1877,5.1919,5.1921,5.1922,5.1917,0,0,5.1925,5.1926,0,0,0,0,0,0,0,0,5.1762,5.1767,5.181,5.1813,5.1816,5.185,5.1832,5.1864,5.1875,5.1853,5.1876,5.1877,5.1896,5.1899,5.1906,5.1919,5.1921,5.1925,5.1926,5.1927,5.1927,0,0,0,0,0,0,0,5.176,5.1765,5.1808,5.1811,5.1815,5.1823,5.1829,5.1838,5.187,5.1855,5.1858,5.1863,5.1898,5.1905,5.1908,5.1921,5.1925,5.1926,5.1927,5.1928,5.1933,5.1933,0,0,0,0,0,0,5.1754,5.1763,5.1806,5.1809,5.179,5.1824,5.183,5.1839,5.187,5.1876,5.1862,5.1865,5.1903,5.1906,5.1909,5.1907,5.1927,5.1928,5.1928,5.1934,5.1933,5.1932,0,0,0,0,0,0,5.1753,5.1758,5.1804,5.1787,5.1793,5.1824,5.1834,5.1839,5.1847,5.1876,5.1882,5.1864,5.1903,5.1908,5.1915,5.1909,5.1928,5.1929,5.1934,5.1933,5.1933,5.19,0,0,0,0,0,0,5.1751,5.1757,5.1756,5.1786,5.1794,5.181,5.1833,5.184,5.1849,5.1852,5.1879,5.1884,5.1904,5.1913,5.1916,5.1911,5.193,5.1935,5.1934,5.1933,5.1902,5.1898,5.1895,0,0,0,0,0,5.1749,5.1744,5.1756,5.1761,5.1793,5.1809,5.1814,5.1838,5.1848,5.1847,5.1866,5.1884,5.1909,5.1914,5.1917,5.1912,5.1936,5.1934,5.1933,5.1903,5.1899,5.1895,0,0,0,0,0,0,5.171,5.1748,5.1762,5.1767,5.1785,5.1816,5.1815,5.1832,5.1846,5.1849,5.1877,5.1883,5.1887,5.19,5.1905,5.1909,5.1924,5.1924,5.1901,5.1897,5.1893,5.189,5.1931,0,0,0,0,0,5.1702,5.1713,5.1745,5.1747,5.1755,5.1784,5.1791,5.1809,5.1828,5.1835,5.1855,5.1872,5.1884,5.1891,5.1903,5.1904,5.1911,5.1902,5.1899,5.1896,5.1895,5.1897,5.1894,5.1928,5.1928,5.1928,0,0,5.1686,5.1708,5.1713,5.174,5.1756,5.1765,5.179,5.1799,5.1806,5.1836,5.1845,5.186,5.1881,5.1885,5.1888,5.1896,5.1887,5.1894,5.1892,5.1893,5.1896,5.1892,5.189,5.1927,5.1927,5.1928,0,0,5.1662,5.1679,5.1683,5.1699,5.1724,5.1743,5.1744,5.1773,5.1784,5.1794,5.1817,5.1826,5.1845,5.186,5.187,5.1852,5.1869,5.1856,5.1838,5.184,5.1837,5.1835,5.1829,5.1827,5.1855,5.1855,5.1854,0,5.1638,5.1655,5.1682,5.1691,5.1702,5.1731,5.1735,5.1749,5.1775,5.1782,5.1791,5.1818,5.1834,5.1843,5.1839,5.1845,5.1847,5.1853,5.1835,5.1833,5.1832,5.1827,5.1824,5.1853,5.1853,5.1853,5.1853,0,5.1625,5.1636,5.1636,5.1663,5.1674,5.168,5.1708,5.1716,5.1732,5.175,5.176,5.178,5.1798,5.1801,5.1817,5.1812,5.1817,5.183,5.1846,5.1826,5.1822,5.182,5.185,5.1851,5.1851,5.1852,0,0,5.1577,5.162,5.162,5.1633,5.1663,5.1672,5.1679,5.1698,5.1704,5.1722,5.1729,5.1746,5.1759,5.177,5.1787,5.1789,5.1775,5.1802,5.1803,5.1797,5.1772,5.1762,5.1759,5.1786,5.1785,5.1785,5.177,0,5.1558,5.1574,5.16,5.1607,5.1618,5.1647,5.1653,5.1672,5.1689,5.17,5.1719,5.1731,5.1746,5.1754,5.1756,5.1776,5.177,5.1777,5.1792,5.1792,5.1786,5.1757,5.1746,5.1731,5.1769,5.1768,5.1768,0,5.1537,5.1556,5.1565,5.1595,5.1601,5.1606,5.1626,5.1637,5.1658,5.1671,5.1684,5.1703,5.1712,5.1727,5.1739,5.1743,5.1751,5.1761,5.1761,5.1764,5.1779,5.1759,5.1727,5.1725,5.1766,5.1766,5.1766,0,5.1502,5.1529,5.1538,5.1548,5.1584,5.1587,5.1602,5.1624,5.1634,5.1651,5.1658,5.1675,5.1685,5.1697,5.1721,5.1729,5.1731,5.1747,5.1741,5.174,5.174,5.174,5.1709,5.1744,5.1744,5.1744,5.1744,0,5.1479,5.1483,5.1523,5.1529,5.1535,5.1564,5.1569,5.1586,5.1606,5.1615,5.164,5.1648,5.1678,5.1689,5.1707,5.1715,5.1719,5.1729,5.1734,5.1727,5.1726,5.1732,5.1734,5.1744,5.1744,5.1744,5.1744,0,5.144,5.1467,5.148,5.1513,5.1521,5.1524,5.1552,5.1559,5.1578,5.1589,5.1593,5.1623,5.1637,5.1662,5.1683,5.1695,5.17,5.1708,5.1693,5.1696,5.1689,5.169,5.1662,5.166,5.1695,5.1695,5.1695,0,5.1424,5.1428,5.1463,5.1472,5.1486,5.1499,5.151,5.1539,5.1549,5.1575,5.1578,5.1595,5.161,5.1632,5.1654,5.1671,5.168,5.1669,5.1682,5.1676,5.168,5.168,5.1681,5.1666,5.1665,5.1665,5.1664,0,5.1392,5.1405,5.1421,5.1442,5.1455,5.1472,5.149,5.1495,5.1528,5.1538,5.1554,5.1566,5.1589,5.1605,5.1625,5.1639,5.1657,5.166,5.166,5.1653,5.1645,5.165,5.1685,5.1661,5.1661,5.1661,5.1662,5.1662,5.1364,5.137,5.1396,5.1413,5.143,5.1447,5.1455,5.1476,5.149,5.1512,5.1528,5.1543,5.1565,5.1594,5.1607,5.1619,5.1627,5.1626,5.1626,5.1626,5.1623,5.1643,5.1622,5.1623,5.1623,5.1623,5.1623,0,5.1334,5.1353,5.1368,5.1394,5.1407,5.1425,5.1446,5.1456,5.1469,5.1489,5.1504,5.1523,5.1539,5.1563,5.1581,5.1586,5.1595,5.159,5.159,5.1593,5.1615,5.1614,5.1583,5.1583,5.1583,5.1583,5.1583,5.1583,5.132,5.1332,5.1348,5.1368,5.1386,5.1403,5.1414,5.1429,5.1445,5.1466,5.148,5.1497,5.1518,5.1538,5.1554,5.1561,5.1566,5.1559,5.1568,5.1588,5.1591,5.1595,5.1594,5.156,5.1559,5.1546,5.1545,5.1545]}]]